Location: Unspecified
(50.7693°N, 0.0000°E)
Time: 06:30:45
(UTC+00:00)

Transit 2A - Pass Details

Date: 16 August 2020
Orbit: 591 x 967 km, 66.7° (Epoch: 20 September)

Event Time Altitude Azimuth Distance (km) Brightness Sun altitude
Rises 02:36:14 0° 322° (NW) 3,667 9.7 -17.6°
Reaches altitude 10° 02:38:52 10° 325° (NW) 2,715 9.0 -17.3°
Maximum altitude 02:45:16 70° 48° (NE) 1,007 6.8 -16.7°
Drops below altitude 10° 02:51:20 10° 133° (SE) 2,575 8.7 -16.0°
Sets 02:53:46 0° 135° (SE) 3,466 9.4 -15.8°
